DECAYED
Showing default

LEMUR 2 YNDRD, 44413 (Decayed)

Orbit data source: Space-Track

LEMUR 2 YNDRD, 44413 was a payload satellite owned by Spire (US) in LEO that was launched on Fri, 05 Jul 2019 UTC via a SOYUZ-2-1B launch vehicle from the Vostochny Cosmodrome (VOSTO). Payload-class satellites include a variety of spacecraft equipped with specific instruments for various scientific and technological missions. These include communications satellites like Starlink; space stations such as the ISS; scientific satellites like the Hubble; Earth observation satellites from companies like Planet Labs, Umbra, and HawkEye 360; GPS; miniature CubeSats for education and research; and military/defense satellites.

Loading next visibility...
Identifier
44413, 2019-038AD
Orbit
Decayed
Last TLE update
1 year ago
Origin
Manufacturer
Spire/Glasgow
Mission
Decayed Commercial Com/MetRO
Bus & Motor
CUBESAT 3U, Unknown motor
Mass
4.6 kg wet, 4.6 kg dry
Launch date (UTC)
2019-07-05 (6 years ago)
Launch vehicle
SOYUZ-2-1B
Launch site
Vostochny Cosmodrome (VOSTO)
Object type
Payload
Rocket body
Debris
Shape & HBR
Box + 2 Pan, 0.7 m
Radar Cross Section
0.124 m², Small (<0.1 m²)

Expand to show TLE details & history

TLE from 1 year ago
0 LEMUR 2 YNDRD
1 44413U 19038AD  24118.54845355  .15903007  28318-5  44698-3 0  9998
2 44413  97.6172 122.0256 0009235 214.8249 145.2449 16.44797926267264
Epoch: 2024-04-27T13:09Z
TLE epoch observation values (Epoch: 2024-04-27T13:09:46.386Z)
Latitude
-0.00004°
Longitude
68.56838°
Altitude
161.28 km
Speed
7.806 km/s
True Right ascension
08h 08m 06s
True Declination
0° 00' 00"
Sunlit
Object was in daylight at epoch
Visualization orbit readout
Visualization observer readout
Orbital elements
Apogee altitude
155.91 km
Perigee altitude
143.853 km
Semi-major axis
6,528.019 km
Eccentricity
0.00092
Inclination
97.6172°
RAAN
122.0256°
Arg. of periapsis
214.8249°
True anomaly
Unknown
Mean anomaly
145.2449°
Eccentric anomaly
Unknown
Mean motion
4.11501 °/min
Orbital period
87.48 mins
BSTAR
0.00044698
Loading maneuver chart data...
Loading SW <> Apogee altitude chart data...

LEMUR 2 YNDRD Visibility forecast

Observer location: undefined°, undefined°

Span
Click to sort rows by Start time (UTC) header in descending order
Start Az.
Max El. time (UTC)
Max El. Az.
Max El.
End time (UTC)
End Az.
6 mins2025-07-01 09:23:34.902Z183.534° SSW2025-07-01 09:26:34.902Z281.196° WNW44.632°2025-07-01 09:29:34.902Z349.85° N
5 mins2025-07-01 09:33:34.902Z192.15° SSW2025-07-01 09:35:34.902Z250.685° W44.44°2025-07-01 09:38:34.902Z346.567° N
5 mins2025-07-01 09:43:34.902Z204.91° SW2025-07-01 09:45:34.902Z290.727° WNW44.132°2025-07-01 09:48:34.902Z351.614° N
5 mins2025-07-01 09:52:34.902Z203.16° SW2025-07-01 09:54:34.902Z268.157° W44.004°2025-07-01 09:57:34.902Z347.578° N
5 mins2025-07-01 10:01:34.902Z201.558° SSW2025-07-01 10:03:34.902Z251.001° W43.544°2025-07-01 10:06:34.902Z342.325° N
5 mins2025-07-01 10:11:34.902Z214.759° SW2025-07-01 10:13:34.902Z278.954° WNW43.346°2025-07-01 10:16:34.902Z349.603° N
5 mins2025-07-01 10:20:34.902Z211.633° SW2025-07-01 10:22:34.902Z263.869° W42.936°2025-07-01 10:25:34.902Z343.808° N
5 mins2025-07-01 10:30:34.902Z226.274° WSW2025-07-01 10:32:34.902Z286.462° WNW42.478°2025-07-01 10:35:34.902Z352.647° N
5 mins2025-07-01 10:39:34.902Z221.86° SW2025-07-01 10:41:34.902Z273.422° WNW42.112°2025-07-01 10:44:34.902Z346.178° N
5 mins2025-07-01 10:48:34.902Z217.961° SW2025-07-01 10:51:34.902Z292.27° WNW41.407°2025-07-01 10:53:34.902Z338.839° N
5 mins2025-07-01 10:58:34.902Z231.789° WSW2025-07-01 11:00:34.902Z280.853° WNW41.083°2025-07-01 11:03:34.902Z349.428° N
5 mins2025-07-01 11:07:34.902Z227.15° WSW2025-07-01 11:09:34.902Z270.898° WNW40.381°2025-07-01 11:12:34.902Z341.623° N
5 mins2025-07-01 11:17:34.902Z241.084° WSW2025-07-01 11:19:34.902Z286.952° WNW39.863°2025-07-01 11:22:34.902Z353.625° N
5 mins2025-07-01 11:26:34.902Z235.985° WSW2025-07-01 11:28:34.902Z277.837° WNW39.183°2025-07-01 11:31:34.902Z345.13° N
4 mins2025-07-01 11:36:34.902Z249.571° W2025-07-01 11:38:34.902Z292.21° WNW38.462°2025-07-01 11:40:34.902Z336.366° NNW
5 mins2025-07-01 11:45:34.902Z244.264° WSW2025-07-01 11:47:34.902Z283.797° WNW37.803°2025-07-01 11:50:34.902Z349.417° N
5 mins2025-07-01 11:54:34.902Z239.27° WSW2025-07-01 11:57:34.902Z296.935° NW36.896°2025-07-01 11:59:34.902Z340.14° N
5 mins2025-07-01 12:04:34.902Z251.896° W2025-07-01 12:06:34.902Z289.079° WNW36.255°2025-07-01 12:09:34.902Z354.609° N
5 mins2025-07-01 12:13:34.902Z246.876° WSW2025-07-01 12:16:34.902Z301.329° NW35.182°2025-07-01 12:18:34.902Z344.532° N
4 mins2025-07-01 12:23:34.902Z258.877° W2025-07-01 12:25:34.902Z293.898° NW34.561°2025-07-01 12:27:34.902Z334.936° NNW
5 mins2025-07-01 12:32:34.902Z253.941° W2025-07-01 12:34:34.902Z287.253° WNW33.482°2025-07-01 12:37:34.902Z349.648° N
4 mins2025-07-01 12:42:34.902Z265.261° W2025-07-01 12:44:34.902Z298.409° NW32.742°2025-07-01 12:46:34.902Z339.407° N
5 mins2025-07-01 12:51:34.902Z260.474° W2025-07-01 12:53:34.902Z292.045° WNW31.656°2025-07-01 12:56:34.902Z355.653° N
4 mins2025-07-01 13:01:34.902Z271.128° WNW2025-07-01 13:03:34.902Z302.726° NW30.823°2025-07-01 13:05:34.902Z344.441° N
4 mins2025-07-01 13:10:34.902Z266.522° W2025-07-01 13:12:34.902Z296.57° NW29.73°2025-07-01 13:14:34.902Z334.491° NNW
4 mins2025-07-01 13:20:34.902Z276.564° WNW2025-07-01 13:22:34.902Z306.933° NW28.837°2025-07-01 13:24:34.902Z350.173° N
4 mins2025-07-01 13:29:34.902Z272.147° WNW2025-07-01 13:31:34.902Z300.917° NW27.735°2025-07-01 13:33:34.902Z339.417° N
4 mins2025-07-01 13:39:34.902Z281.652° WNW2025-07-01 13:41:34.902Z311.101° NW26.818°2025-07-01 13:43:34.902Z356.798° N
4 mins2025-07-01 13:48:34.902Z277.42° WNW2025-07-01 13:50:34.902Z305.157° NW25.709°2025-07-01 13:52:34.902Z344.877° N
4 mins2025-07-01 14:07:34.902Z282.405° WNW2025-07-01 14:09:34.902Z309.345° NW23.689°2025-07-01 14:11:34.902Z351.023° N
4 mins2025-07-01 14:26:34.902Z287.163° WNW2025-07-01 14:28:34.902Z313.53° NW21.719°2025-07-01 14:30:34.902Z358.071° N
4 mins2025-07-02 05:19:34.902Z72.046° E2025-07-02 05:22:34.902Z21.021° NNE30.802°2025-07-02 05:23:34.902Z336.375° NNW
4 mins2025-07-02 05:47:34.902Z77.219° E2025-07-02 05:50:34.902Z25.144° NE32.41°2025-07-02 05:51:34.902Z345.384° N
4 mins2025-07-02 05:56:34.902Z82.642° E2025-07-02 05:59:34.902Z35.764° NE33.22°2025-07-02 06:00:34.902Z2.681° NNE
4 mins2025-07-02 06:06:34.902Z76.958° E2025-07-02 06:08:34.902Z44.983° NE33.63°2025-07-02 06:10:34.902Z334.289° NNW
4 mins2025-07-02 06:15:34.902Z82.707° E2025-07-02 06:18:34.902Z28.806° NE34.143°2025-07-02 06:19:34.902Z352.487° N
4 mins2025-07-02 06:24:34.902Z88.474° E2025-07-02 06:27:34.902Z39.229° NE35.056°2025-07-02 06:28:34.902Z7.567° NNE
5 mins2025-07-02 06:33:34.902Z94.314° ESE2025-07-02 06:36:34.902Z48.584° ENE35.582°2025-07-02 06:38:34.902Z342.671° N
4 mins2025-07-02 06:43:34.902Z88.636° E2025-07-02 06:46:34.902Z32.01° NE35.92°2025-07-02 06:47:34.902Z358.065° N
4 mins2025-07-02 06:52:34.902Z94.799° ESE2025-07-02 06:55:34.902Z42.429° NE36.881°2025-07-02 06:56:34.902Z11.443° NNE
5 mins2025-07-02 07:01:34.902Z101.014° ESE2025-07-02 07:04:34.902Z52.108° ENE37.469°2025-07-02 07:06:34.902Z349.142° N
4 mins2025-07-02 07:11:34.902Z95.165° ESE2025-07-02 07:13:34.902Z61.274° ENE37.808°2025-07-02 07:15:34.902Z2.332° NNE
5 mins2025-07-02 07:20:34.902Z101.768° ESE2025-07-02 07:23:34.902Z45.346° ENE38.627°2025-07-02 07:25:34.902Z341.298° N
5 mins2025-07-02 07:29:34.902Z108.364° ESE2025-07-02 07:32:34.902Z55.595° ENE39.231°2025-07-02 07:34:34.902Z354.012° N
4 mins2025-07-02 07:39:34.902Z102.494° ESE2025-07-02 07:41:34.902Z65.6° ENE39.583°2025-07-02 07:43:34.902Z5.377° NNE
5 mins2025-07-02 07:48:34.902Z109.547° ESE2025-07-02 07:51:34.902Z47.94° ENE40.236°2025-07-02 07:53:34.902Z346.989° N
5 mins2025-07-02 07:57:34.902Z116.477° SE2025-07-02 08:00:34.902Z59.115° ENE40.819°2025-07-02 08:02:34.902Z357.443° N
4 mins2025-07-02 08:07:34.902Z110.853° ESE2025-07-02 08:09:34.902Z70.413° E41.147°2025-07-02 08:11:34.902Z7.18° NNE
5 mins2025-07-02 08:16:34.902Z118.294° SE2025-07-02 08:19:34.902Z50.122° ENE41.664°2025-07-02 08:21:34.902Z351.025° N
5 mins2025-07-02 08:25:34.902Z125.415° SE2025-07-02 08:28:34.902Z62.793° ENE42.193°2025-07-02 08:30:34.902Z359.478° N
5 mins2025-07-02 08:35:34.902Z120.467° SE2025-07-02 08:37:34.902Z76.168° E42.467°2025-07-02 08:40:34.902Z346.224° N
5 mins2025-07-02 08:44:34.902Z128.098° SE2025-07-02 08:47:34.902Z51.691° ENE42.871°2025-07-02 08:49:34.902Z353.538° N
5 mins2025-07-02 08:53:34.902Z135.139° SSE2025-07-02 08:56:34.902Z66.894° ENE43.32°2025-07-02 08:58:34.902Z0.059° NNE
5 mins2025-07-02 09:03:34.902Z131.462° SE2025-07-02 09:05:34.902Z83.867° E43.515°2025-07-02 09:08:34.902Z349.4° N
5 mins2025-07-02 09:12:34.902Z138.898° SSE2025-07-02 09:15:34.902Z52.142° ENE43.827°2025-07-02 09:17:34.902Z354.557° N
|